El Paso, TX

3:57 AM MDT on July 22, 2017 (GMT -0600)
El Paso International

Weather History for KELP - February, 2014

Change the Weather History Date:

Sunday, February 23, 2014

  Actual Average Record
Temperature  
Mean Temperature 64 °F 52 °F  
Max Temperature 76 °F 65 °F 84 °F (1904)
Min Temperature 52 °F 39 °F 20 °F (1976)
Degree Days  
Heating Degree Days 1 13  
Month to date heating degree days 221 356  
Since 1 July heating degree days 1777 2041  
Cooling Degree Days 0 0  
Month to date cooling degree days 5 0  
Year to date cooling degree days 5 0  
Growing Degree Days 14 (Base 50)    
Moisture  
Dew Point 12 °F    
Average Humidity 16    
Maximum Humidity 24    
Minimum Humidity 7    
Precipitation  
Precipitation 0.00 in 0.01 in 0.18 in (1923)
Month to date precipitation T 0.39  
Year to date precipitation T 0.79  
Snow  
Snow 0.00 in - - ()
Month to date snowfall 0.0  
Since 1 July snowfall T  
Snow Depth 0.00 in    
Sea Level Pressure  
Sea Level Pressure 29.89 in    
Wind  
Wind Speed 7 mph (WSW)    
Max Wind Speed 20 mph    
Max Gust Speed 28 mph    
Visibility 10 miles    
Events      
T = Trace of Precipitation, MM = Missing Value Source: NWS Daily Summary

Daily Weather History Graph

Daily Weather History Graph

Search for Another Location

Airport or City:

Trip Planner

Search our weather history database for the weather conditions in past years. The results will help you decide how hot, cold, wet, or windy it might be!

Date:

Astronomy

Feb. 23, 2014 Rise Set
Actual Time 6:39 AM MST 5:58 PM MST
Civil Twilight 6:14 AM MST 6:23 PM MST
Nautical Twilight 5:46 AM MST 6:51 PM MST
Astronomical Twilight 5:18 AM MST 7:20 PM MST
Moon 1:30 AM MST (2/23) 12:14 PM MST (2/23)
Length of Visible Light 12h 08m
Length of Day
11h 19m
Last Quarter, 38% of the Moon is Illuminated
Feb 23
Last Quarter
Mar 1
New
Mar 8
First Quarter
Mar 16
Full
Mar 23
Last Quarter

Hourly Weather History & Observations

Time (MST) Temp. Dew Point Humidity Pressure Visibility Wind Dir Wind Speed Gust Speed Precip Events Conditions
12:51 AM 63.0 °F 8.1 °F 11% 29.82 in 10.0 mi NW 5.8 mph - N/A   Mostly Cloudy
1:51 AM 61.0 °F 9.0 °F 13% 29.83 in 10.0 mi WNW 4.6 mph - N/A   Mostly Cloudy
2:51 AM 62.1 °F 9.0 °F 12% 29.81 in 10.0 mi WNW 5.8 mph - N/A   Mostly Cloudy
3:51 AM 61.0 °F 8.1 °F 12% 29.82 in 10.0 mi NW 5.8 mph - N/A   Mostly Cloudy
4:51 AM 59.0 °F 9.0 °F 14% 29.85 in 10.0 mi WNW 3.5 mph - N/A   Mostly Cloudy
5:51 AM 57.0 °F 8.1 °F 14% 29.88 in 10.0 mi SW 4.6 mph - N/A   Mostly Cloudy
6:51 AM 53.1 °F 9.0 °F 17% 29.91 in 10.0 mi Calm Calm - N/A   Mostly Cloudy
7:51 AM 55.9 °F 10.9 °F 17% 29.94 in 10.0 mi SSE 4.6 mph - N/A   Mostly Cloudy
8:51 AM 59.0 °F 9.0 °F 14% 29.96 in 10.0 mi South 5.8 mph - N/A   Scattered Clouds
9:51 AM 66.9 °F 8.1 °F 10% 29.95 in 10.0 mi SSW 11.5 mph - N/A   Mostly Cloudy
10:51 AM 71.1 °F 7.0 °F 8% 29.94 in 10.0 mi WNW 15.0 mph - N/A   Mostly Cloudy
11:51 AM 72.0 °F 7.0 °F 8% 29.93 in 10.0 mi WSW 11.5 mph - N/A   Mostly Cloudy
12:51 PM 72.0 °F 7.0 °F 8% 29.89 in 10.0 mi NW 8.1 mph - N/A   Mostly Cloudy
1:51 PM 75.0 °F 8.1 °F 8% 29.87 in 10.0 mi WSW 6.9 mph 16.1 mph N/A   Mostly Cloudy
2:51 PM 75.0 °F 8.1 °F 8% 29.85 in 10.0 mi SW 11.5 mph - N/A   Mostly Cloudy
3:51 PM 72.0 °F 8.1 °F 8% 29.86 in 10.0 mi West 10.4 mph - N/A   Mostly Cloudy
4:51 PM 72.0 °F 10.9 °F 10% 29.87 in 10.0 mi WNW 8.1 mph - N/A   Mostly Cloudy
5:51 PM 71.1 °F 15.1 °F 12% 29.90 in 10.0 mi West 9.2 mph - N/A   Mostly Cloudy
6:51 PM 69.1 °F 15.1 °F 13% 29.93 in 10.0 mi South 8.1 mph - N/A   Overcast
7:51 PM 68.0 °F 17.1 °F 14% 29.93 in 10.0 mi SSW 8.1 mph - N/A   Overcast
8:51 PM 69.1 °F 25.0 °F 19% 29.92 in 10.0 mi West 10.4 mph - N/A   Overcast
9:51 PM 64.9 °F 26.1 °F 23% 29.90 in 10.0 mi SSW 5.8 mph - N/A   Overcast
10:51 PM 64.0 °F 25.0 °F 23% 29.88 in 10.0 mi SSW 5.8 mph - N/A   Mostly Cloudy
11:51 PM 64.9 °F 26.1 °F 23% 29.87 in 10.0 mi SW 8.1 mph - N/A   Overcast